owner,sensor,date,latitude,longitude,sea_surface_height_above_sea_level,qcFlag 
COMPS,ioos:station:USF.COMPS:ANC:1,2010-10-01T00:00:00Z,28.1930,-82.7890,0.103,1111122 
COMPS,ioos:station:USF.COMPS:ANC:1,2010-10-01T00:06:00Z,28.1930,-82.7890,0.1,1111122 
COMPS,ioos:station:USF.COMPS:ANC:1,2010-10-01T00:12:00Z,28.1930,-82.7890,0.103,1111122 
COMPS,ioos:station:USF.COMPS:ANC:1,2010-10-01T00:18:00Z,28.1930,-82.7890,0.099,1111122 
COMPS,ioos:station:USF.COMPS:ANC:1,2010-10-01T00:24:00Z,28.1930,-82.7890,0.103,1111122 
COMPS,ioos:station:USF.COMPS:ANC:1,2010-10-01T00:30:00Z,28.1930,-82.7890,0.096,1111122 
COMPS,ioos:station:USF.COMPS:ANC:1,2010-10-01T00:36:00Z,28.1930,-82.7890,0.087,1111122 
COMPS,ioos:station:USF.COMPS:ANC:1,2010-10-01T00:42:00Z,28.1930,-82.7890,0.09,1111122 
COMPS,ioos:station:USF.COMPS:ANC:1,2010-10-01T00:48:00Z,28.1930,-82.7890,0.084,1111122 
COMPS,ioos:station:USF.COMPS:ANC:1,2010-10-01T00:54:00Z,28.1930,-82.7890,0.08,1111122 
COMPS,ioos:station:USF.COMPS:ANC:1,2010-10-01T01:00:00Z,28.1930,-82.7890,0.068,1111122 
COMPS,ioos:station:USF.COMPS:ANC:1,2010-10-01T01:06:00Z,28.1930,-82.7890,0.063,1111122 
COMPS,ioos:station:USF.COMPS:ANC:1,2010-10-01T01:12:00Z,28.1930,-82.7890,0.072,1111122 
COMPS,ioos:station:USF.COMPS:ANC:1,2010-10-01T01:18:00Z,28.1930,-82.7890,0.06,1111122 
COMPS,ioos:station:USF.COMPS:ANC:1,2010-10-01T01:24:00Z,28.1930,-82.7890,0.054,1111122 
COMPS,ioos:station:USF.COMPS:ANC:1,2010-10-01T01:30:00Z,28.1930,-82.7890,0.063,1111122 
COMPS,ioos:station:USF.COMPS:ANC:1,2010-10-01T01:36:00Z,28.1930,-82.7890,0.06,1111122 
COMPS,ioos:station:USF.COMPS:ANC:1,2010-10-01T01:42:00Z,28.1930,-82.7890,0.052,1111122 
COMPS,ioos:station:USF.COMPS:ANC:1,2010-10-01T01:48:00Z,28.1930,-82.7890,0.051,1111122 
COMPS,ioos:station:USF.COMPS:ANC:1,2010-10-01T01:54:00Z,28.1930,-82.7890,0.057,1111122 
COMPS,ioos:station:USF.COMPS:ANC:1,2010-10-01T02:00:00Z,28.1930,-82.7890,0.041,1111122 
COMPS,ioos:station:USF.COMPS:ANC:1,2010-10-01T02:06:00Z,28.1930,-82.7890,0.049,1111122 
COMPS,ioos:station:USF.COMPS:ANC:1,2010-10-01T02:12:00Z,28.1930,-82.7890,0.053,1111122 
COMPS,ioos:station:USF.COMPS:ANC:1,2010-10-01T02:18:00Z,28.1930,-82.7890,0.048,1111122 
COMPS,ioos:station:USF.COMPS:ANC:1,2010-10-01T02:24:00Z,28.1930,-82.7890,0.049,1111122 
COMPS,ioos:station:USF.COMPS:ANC:1,2010-10-01T02:30:00Z,28.1930,-82.7890,0.049,1111122 
COMPS,ioos:station:USF.COMPS:ANC:1,2010-10-01T02:36:00Z,28.1930,-82.7890,0.051,1111122 
COMPS,ioos:station:USF.COMPS:ANC:1,2010-10-01T02:42:00Z,28.1930,-82.7890,0.046,1111122 
COMPS,ioos:station:USF.COMPS:ANC:1,2010-10-01T02:48:00Z,28.1930,-82.7890,0.048,1111122 
COMPS,ioos:station:USF.COMPS:ANC:1,2010-10-01T02:54:00Z,28.1930,-82.7890,0.046,1111122 
COMPS,ioos:station:USF.COMPS:ANC:1,2010-10-01T03:00:00Z,28.1930,-82.7890,0.04,1111122 
COMPS,ioos:station:USF.COMPS:ANC:1,2010-10-01T03:06:00Z,28.1930,-82.7890,0.045,1111122 
COMPS,ioos:station:USF.COMPS:ANC:1,2010-10-01T03:12:00Z,28.1930,-82.7890,0.042,1111122 
COMPS,ioos:station:USF.COMPS:ANC:1,2010-10-01T03:18:00Z,28.1930,-82.7890,0.052,1111122 
COMPS,ioos:station:USF.COMPS:ANC:1,2010-10-01T03:24:00Z,28.1930,-82.7890,0.054,1111122 
COMPS,ioos:station:USF.COMPS:ANC:1,2010-10-01T03:30:00Z,28.1930,-82.7890,0.058,1111122 
COMPS,ioos:station:USF.COMPS:ANC:1,2010-10-01T03:36:00Z,28.1930,-82.7890,0.063,1111122 
COMPS,ioos:station:USF.COMPS:ANC:1,2010-10-01T03:42:00Z,28.1930,-82.7890,0.072,1111122 
COMPS,ioos:station:USF.COMPS:ANC:1,2010-10-01T03:48:00Z,28.1930,-82.7890,0.084,1111122 
COMPS,ioos:station:USF.COMPS:ANC:1,2010-10-01T03:54:00Z,28.1930,-82.7890,0.082,1111122 
COMPS,ioos:station:USF.COMPS:ANC:1,2010-10-01T04:00:00Z,28.1930,-82.7890,0.088,1111122 
COMPS,ioos:station:USF.COMPS:ANC:1,2010-10-01T04:06:00Z,28.1930,-82.7890,0.099,1111122 
COMPS,ioos:station:USF.COMPS:ANC:1,2010-10-01T04:12:00Z,28.1930,-82.7890,0.122,1111122 
COMPS,ioos:station:USF.COMPS:ANC:1,2010-10-01T04:18:00Z,28.1930,-82.7890,0.129,1111122 
COMPS,ioos:station:USF.COMPS:ANC:1,2010-10-01T04:24:00Z,28.1930,-82.7890,0.131,1111122 
COMPS,ioos:station:USF.COMPS:ANC:1,2010-10-01T04:30:00Z,28.1930,-82.7890,0.137,1111122 
COMPS,ioos:station:USF.COMPS:ANC:1,2010-10-01T04:36:00Z,28.1930,-82.7890,0.148,1111122 
COMPS,ioos:station:USF.COMPS:ANC:1,2010-10-01T04:42:00Z,28.1930,-82.7890,0.156,1111122 
COMPS,ioos:station:USF.COMPS:ANC:1,2010-10-01T04:48:00Z,28.1930,-82.7890,0.169,1111122 
COMPS,ioos:station:USF.COMPS:ANC:1,2010-10-01T04:54:00Z,28.1930,-82.7890,0.18,1111122 
COMPS,ioos:station:USF.COMPS:ANC:1,2010-10-01T05:00:00Z,28.1930,-82.7890,0.185,1111122 
COMPS,ioos:station:USF.COMPS:ANC:1,2010-10-01T05:06:00Z,28.1930,-82.7890,0.187,1111122 
COMPS,ioos:station:USF.COMPS:ANC:1,2010-10-01T05:12:00Z,28.1930,-82.7890,0.198,1111122 
COMPS,ioos:station:USF.COMPS:ANC:1,2010-10-01T05:18:00Z,28.1930,-82.7890,0.203,1111122 
COMPS,ioos:station:USF.COMPS:ANC:1,2010-10-01T05:24:00Z,28.1930,-82.7890,0.207,1111122 
COMPS,ioos:station:USF.COMPS:ANC:1,2010-10-01T05:30:00Z,28.1930,-82.7890,0.21,1111122 
COMPS,ioos:station:USF.COMPS:ANC:1,2010-10-01T05:36:00Z,28.1930,-82.7890,0.206,1111122 
COMPS,ioos:station:USF.COMPS:ANC:1,2010-10-01T05:42:00Z,28.1930,-82.7890,0.208,1111122 
COMPS,ioos:station:USF.COMPS:ANC:1,2010-10-01T05:48:00Z,28.1930,-82.7890,0.212,1111122 
COMPS,ioos:station:USF.COMPS:ANC:1,2010-10-01T05:54:00Z,28.1930,-82.7890,0.218,1111122 
COMPS,ioos:station:USF.COMPS:ANC:1,2010-10-01T06:00:00Z,28.1930,-82.7890,0.221,1111122 
COMPS,ioos:station:USF.COMPS:ANC:1,2010-10-01T06:06:00Z,28.1930,-82.7890,0.221,1111122 
COMPS,ioos:station:USF.COMPS:ANC:1,2010-10-01T06:12:00Z,28.1930,-82.7890,0.223,1111122 
COMPS,ioos:station:USF.COMPS:ANC:1,2010-10-01T06:18:00Z,28.1930,-82.7890,0.236,1111122 
COMPS,ioos:station:USF.COMPS:ANC:1,2010-10-01T06:24:00Z,28.1930,-82.7890,0.242,1111122 
COMPS,ioos:station:USF.COMPS:ANC:1,2010-10-01T06:30:00Z,28.1930,-82.7890,0.246,1111122 
COMPS,ioos:station:USF.COMPS:ANC:1,2010-10-01T06:36:00Z,28.1930,-82.7890,0.25,1111122 
COMPS,ioos:station:USF.COMPS:ANC:1,2010-10-01T06:42:00Z,28.1930,-82.7890,0.257,1111122 
COMPS,ioos:station:USF.COMPS:ANC:1,2010-10-01T06:48:00Z,28.1930,-82.7890,0.267,1111122 
COMPS,ioos:station:USF.COMPS:ANC:1,2010-10-01T06:54:00Z,28.1930,-82.7890,0.275,1111122 
COMPS,ioos:station:USF.COMPS:ANC:1,2010-10-01T07:00:00Z,28.1930,-82.7890,0.286,1111122 
COMPS,ioos:station:USF.COMPS:ANC:1,2010-10-01T07:06:00Z,28.1930,-82.7890,0.291,1111122 
COMPS,ioos:station:USF.COMPS:ANC:1,2010-10-01T07:12:00Z,28.1930,-82.7890,0.301,1111122 
COMPS,ioos:station:USF.COMPS:ANC:1,2010-10-01T07:18:00Z,28.1930,-82.7890,0.329,1111122 
COMPS,ioos:station:USF.COMPS:ANC:1,2010-10-01T07:24:00Z,28.1930,-82.7890,0.34,1111122 
COMPS,ioos:station:USF.COMPS:ANC:1,2010-10-01T07:30:00Z,28.1930,-82.7890,0.334,1111122 
COMPS,ioos:station:USF.COMPS:ANC:1,2010-10-01T07:36:00Z,28.1930,-82.7890,0.355,1111122 
COMPS,ioos:station:USF.COMPS:ANC:1,2010-10-01T07:42:00Z,28.1930,-82.7890,0.382,1111122 
COMPS,ioos:station:USF.COMPS:ANC:1,2010-10-01T07:48:00Z,28.1930,-82.7890,0.39,1111122 
COMPS,ioos:station:USF.COMPS:ANC:1,2010-10-01T07:54:00Z,28.1930,-82.7890,0.391,1111122 
COMPS,ioos:station:USF.COMPS:ANC:1,2010-10-01T08:00:00Z,28.1930,-82.7890,0.389,1111122 
COMPS,ioos:station:USF.COMPS:ANC:1,2010-10-01T08:06:00Z,28.1930,-82.7890,0.386,1111122 
COMPS,ioos:station:USF.COMPS:ANC:1,2010-10-01T08:12:00Z,28.1930,-82.7890,0.383,1111122 
COMPS,ioos:station:USF.COMPS:ANC:1,2010-10-01T08:18:00Z,28.1930,-82.7890,0.387,1111122 
COMPS,ioos:station:USF.COMPS:ANC:1,2010-10-01T08:24:00Z,28.1930,-82.7890,0.371,1111122 
COMPS,ioos:station:USF.COMPS:ANC:1,2010-10-01T08:30:00Z,28.1930,-82.7890,0.356,1111122 
COMPS,ioos:station:USF.COMPS:ANC:1,2010-10-01T08:36:00Z,28.1930,-82.7890,0.347,1111122 
COMPS,ioos:station:USF.COMPS:ANC:1,2010-10-01T08:42:00Z,28.1930,-82.7890,0.339,1111122 
COMPS,ioos:station:USF.COMPS:ANC:1,2010-10-01T08:48:00Z,28.1930,-82.7890,0.332,1111122 
COMPS,ioos:station:USF.COMPS:ANC:1,2010-10-01T08:54:00Z,28.1930,-82.7890,0.323,1111122 
COMPS,ioos:station:USF.COMPS:ANC:1,2010-10-01T09:00:00Z,28.1930,-82.7890,0.31,1111122 
COMPS,ioos:station:USF.COMPS:ANC:1,2010-10-01T09:06:00Z,28.1930,-82.7890,0.311,1111122 
COMPS,ioos:station:USF.COMPS:ANC:1,2010-10-01T09:12:00Z,28.1930,-82.7890,0.314,1111122 
COMPS,ioos:station:USF.COMPS:ANC:1,2010-10-01T09:18:00Z,28.1930,-82.7890,0.313,1111122 
COMPS,ioos:station:USF.COMPS:ANC:1,2010-10-01T09:24:00Z,28.1930,-82.7890,0.306,1111122 
COMPS,ioos:station:USF.COMPS:ANC:1,2010-10-01T09:30:00Z,28.1930,-82.7890,0.302,1111122 
COMPS,ioos:station:USF.COMPS:ANC:1,2010-10-01T09:36:00Z,28.1930,-82.7890,0.299,1111122 
COMPS,ioos:station:USF.COMPS:ANC:1,2010-10-01T09:42:00Z,28.1930,-82.7890,0.294,1111122 
COMPS,ioos:station:USF.COMPS:ANC:1,2010-10-01T09:48:00Z,28.1930,-82.7890,0.286,1111122 
COMPS,ioos:station:USF.COMPS:ANC:1,2010-10-01T09:54:00Z,28.1930,-82.7890,0.283,1111122 
COMPS,ioos:station:USF.COMPS:ANC:1,2010-10-01T10:00:00Z,28.1930,-82.7890,0.285,1111122 
COMPS,ioos:station:USF.COMPS:ANC:1,2010-10-01T10:06:00Z,28.1930,-82.7890,0.282,1111122 
COMPS,ioos:station:USF.COMPS:ANC:1,2010-10-01T10:12:00Z,28.1930,-82.7890,0.275,1111122 
COMPS,ioos:station:USF.COMPS:ANC:1,2010-10-01T10:18:00Z,28.1930,-82.7890,0.266,1111122 
COMPS,ioos:station:USF.COMPS:ANC:1,2010-10-01T10:24:00Z,28.1930,-82.7890,0.261,1111122 
COMPS,ioos:station:USF.COMPS:ANC:1,2010-10-01T10:30:00Z,28.1930,-82.7890,0.257,1111122 
COMPS,ioos:station:USF.COMPS:ANC:1,2010-10-01T10:36:00Z,28.1930,-82.7890,0.256,1111122 
COMPS,ioos:station:USF.COMPS:ANC:1,2010-10-01T10:42:00Z,28.1930,-82.7890,0.251,1111122 
COMPS,ioos:station:USF.COMPS:ANC:1,2010-10-01T10:48:00Z,28.1930,-82.7890,0.25,1111122 
COMPS,ioos:station:USF.COMPS:ANC:1,2010-10-01T10:54:00Z,28.1930,-82.7890,0.25,1111122 
COMPS,ioos:station:USF.COMPS:ANC:1,2010-10-01T11:00:00Z,28.1930,-82.7890,0.246,1111122 
COMPS,ioos:station:USF.COMPS:ANC:1,2010-10-01T11:06:00Z,28.1930,-82.7890,0.242,1111122 
COMPS,ioos:station:USF.COMPS:ANC:1,2010-10-01T11:12:00Z,28.1930,-82.7890,0.242,1111122 
COMPS,ioos:station:USF.COMPS:ANC:1,2010-10-01T11:18:00Z,28.1930,-82.7890,0.235,1111122 
COMPS,ioos:station:USF.COMPS:ANC:1,2010-10-01T11:24:00Z,28.1930,-82.7890,0.224,1111122 
COMPS,ioos:station:USF.COMPS:ANC:1,2010-10-01T11:30:00Z,28.1930,-82.7890,0.218,1111122 
COMPS,ioos:station:USF.COMPS:ANC:1,2010-10-01T11:36:00Z,28.1930,-82.7890,0.215,1111122 
COMPS,ioos:station:USF.COMPS:ANC:1,2010-10-01T11:42:00Z,28.1930,-82.7890,0.206,1111122 
COMPS,ioos:station:USF.COMPS:ANC:1,2010-10-01T11:48:00Z,28.1930,-82.7890,0.193,1111122 
COMPS,ioos:station:USF.COMPS:ANC:1,2010-10-01T11:54:00Z,28.1930,-82.7890,0.182,1111122 
COMPS,ioos:station:USF.COMPS:ANC:1,2010-10-01T12:00:00Z,28.1930,-82.7890,0.173,1111122 
COMPS,ioos:station:USF.COMPS:ANC:1,2010-10-01T12:06:00Z,28.1930,-82.7890,0.163,1111122 
COMPS,ioos:station:USF.COMPS:ANC:1,2010-10-01T12:12:00Z,28.1930,-82.7890,0.148,1111122 
COMPS,ioos:station:USF.COMPS:ANC:1,2010-10-01T12:18:00Z,28.1930,-82.7890,0.137,1111122 
COMPS,ioos:station:USF.COMPS:ANC:1,2010-10-01T12:24:00Z,28.1930,-82.7890,0.122,1111122 
COMPS,ioos:station:USF.COMPS:ANC:1,2010-10-01T12:30:00Z,28.1930,-82.7890,0.109,1111122 
COMPS,ioos:station:USF.COMPS:ANC:1,2010-10-01T12:36:00Z,28.1930,-82.7890,0.095,1111122 
COMPS,ioos:station:USF.COMPS:ANC:1,2010-10-01T12:42:00Z,28.1930,-82.7890,0.079,1111122 
COMPS,ioos:station:USF.COMPS:ANC:1,2010-10-01T12:48:00Z,28.1930,-82.7890,0.062,1111122 
COMPS,ioos:station:USF.COMPS:ANC:1,2010-10-01T12:54:00Z,28.1930,-82.7890,0.048,1111122 
COMPS,ioos:station:USF.COMPS:ANC:1,2010-10-01T13:00:00Z,28.1930,-82.7890,0.035,1111122 
COMPS,ioos:station:USF.COMPS:ANC:1,2010-10-01T13:06:00Z,28.1930,-82.7890,0.023,1111122 
COMPS,ioos:station:USF.COMPS:ANC:1,2010-10-01T13:12:00Z,28.1930,-82.7890,0.011,1111122 
COMPS,ioos:station:USF.COMPS:ANC:1,2010-10-01T13:18:00Z,28.1930,-82.7890,-0.003,1111122 
COMPS,ioos:station:USF.COMPS:ANC:1,2010-10-01T13:24:00Z,28.1930,-82.7890,-0.016,1111122 
COMPS,ioos:station:USF.COMPS:ANC:1,2010-10-01T13:30:00Z,28.1930,-82.7890,-0.03,1111122 
COMPS,ioos:station:USF.COMPS:ANC:1,2010-10-01T13:36:00Z,28.1930,-82.7890,-0.042,1111122 
COMPS,ioos:station:USF.COMPS:ANC:1,2010-10-01T13:42:00Z,28.1930,-82.7890,-0.058,1111122 
COMPS,ioos:station:USF.COMPS:ANC:1,2010-10-01T13:48:00Z,28.1930,-82.7890,-0.074,1111122 
COMPS,ioos:station:USF.COMPS:ANC:1,2010-10-01T13:54:00Z,28.1930,-82.7890,-0.089,1111122 
COMPS,ioos:station:USF.COMPS:ANC:1,2010-10-01T14:00:00Z,28.1930,-82.7890,-0.108,1111122 
COMPS,ioos:station:USF.COMPS:ANC:1,2010-10-01T14:06:00Z,28.1930,-82.7890,-0.123,1111122 
COMPS,ioos:station:USF.COMPS:ANC:1,2010-10-01T14:12:00Z,28.1930,-82.7890,-0.137,1111122 
COMPS,ioos:station:USF.COMPS:ANC:1,2010-10-01T14:18:00Z,28.1930,-82.7890,-0.152,1111122 
COMPS,ioos:station:USF.COMPS:ANC:1,2010-10-01T14:24:00Z,28.1930,-82.7890,-0.17,1111122 
COMPS,ioos:station:USF.COMPS:ANC:1,2010-10-01T14:30:00Z,28.1930,-82.7890,-0.184,1111122 
COMPS,ioos:station:USF.COMPS:ANC:1,2010-10-01T14:36:00Z,28.1930,-82.7890,-0.195,1111122 
COMPS,ioos:station:USF.COMPS:ANC:1,2010-10-01T14:42:00Z,28.1930,-82.7890,-0.21,1111122 
COMPS,ioos:station:USF.COMPS:ANC:1,2010-10-01T14:48:00Z,28.1930,-82.7890,-0.227,1111122 
COMPS,ioos:station:USF.COMPS:ANC:1,2010-10-01T14:54:00Z,28.1930,-82.7890,-0.242,1111122 
COMPS,ioos:station:USF.COMPS:ANC:1,2010-10-01T15:00:00Z,28.1930,-82.7890,-0.251,1111122 
COMPS,ioos:station:USF.COMPS:ANC:1,2010-10-01T15:06:00Z,28.1930,-82.7890,-0.259,1111122 
COMPS,ioos:station:USF.COMPS:ANC:1,2010-10-01T15:12:00Z,28.1930,-82.7890,-0.266,1111122 
COMPS,ioos:station:USF.COMPS:ANC:1,2010-10-01T15:18:00Z,28.1930,-82.7890,-0.276,1111122 
COMPS,ioos:station:USF.COMPS:ANC:1,2010-10-01T15:24:00Z,28.1930,-82.7890,-0.29,1111122 
COMPS,ioos:station:USF.COMPS:ANC:1,2010-10-01T15:30:00Z,28.1930,-82.7890,-0.304,1111122 
COMPS,ioos:station:USF.COMPS:ANC:1,2010-10-01T15:36:00Z,28.1930,-82.7890,-0.316,1111122 
COMPS,ioos:station:USF.COMPS:ANC:1,2010-10-01T15:42:00Z,28.1930,-82.7890,-0.328,1111122 
COMPS,ioos:station:USF.COMPS:ANC:1,2010-10-01T15:48:00Z,28.1930,-82.7890,-0.341,1111122 
COMPS,ioos:station:USF.COMPS:ANC:1,2010-10-01T15:54:00Z,28.1930,-82.7890,-0.354,1111122 
COMPS,ioos:station:USF.COMPS:ANC:1,2010-10-01T16:00:00Z,28.1930,-82.7890,-0.365,1111122 
COMPS,ioos:station:USF.COMPS:ANC:1,2010-10-01T16:06:00Z,28.1930,-82.7890,-0.378,1111122 
COMPS,ioos:station:USF.COMPS:ANC:1,2010-10-01T16:12:00Z,28.1930,-82.7890,-0.391,1111122 
COMPS,ioos:station:USF.COMPS:ANC:1,2010-10-01T16:18:00Z,28.1930,-82.7890,-0.406,1111122 
COMPS,ioos:station:USF.COMPS:ANC:1,2010-10-01T16:24:00Z,28.1930,-82.7890,-0.416,1111122 
COMPS,ioos:station:USF.COMPS:ANC:1,2010-10-01T16:30:00Z,28.1930,-82.7890,-0.423,1111122 
COMPS,ioos:station:USF.COMPS:ANC:1,2010-10-01T16:36:00Z,28.1930,-82.7890,-0.43,1111122 
COMPS,ioos:station:USF.COMPS:ANC:1,2010-10-01T16:42:00Z,28.1930,-82.7890,-0.439,1111122 
COMPS,ioos:station:USF.COMPS:ANC:1,2010-10-01T16:48:00Z,28.1930,-82.7890,-0.448,1111122 
COMPS,ioos:station:USF.COMPS:ANC:1,2010-10-01T16:54:00Z,28.1930,-82.7890,-0.454,1111122 
COMPS,ioos:station:USF.COMPS:ANC:1,2010-10-01T17:00:00Z,28.1930,-82.7890,-0.459,1111122 
COMPS,ioos:station:USF.COMPS:ANC:1,2010-10-01T17:06:00Z,28.1930,-82.7890,-0.461,1111122 
COMPS,ioos:station:USF.COMPS:ANC:1,2010-10-01T17:12:00Z,28.1930,-82.7890,-0.461,1111122 
COMPS,ioos:station:USF.COMPS:ANC:1,2010-10-01T17:18:00Z,28.1930,-82.7890,-0.458,1111122 
COMPS,ioos:station:USF.COMPS:ANC:1,2010-10-01T17:24:00Z,28.1930,-82.7890,-0.454,1111122 
COMPS,ioos:station:USF.COMPS:ANC:1,2010-10-01T17:30:00Z,28.1930,-82.7890,-0.45,1111122 
COMPS,ioos:station:USF.COMPS:ANC:1,2010-10-01T17:36:00Z,28.1930,-82.7890,-0.446,1111122 
COMPS,ioos:station:USF.COMPS:ANC:1,2010-10-01T17:42:00Z,28.1930,-82.7890,-0.445,1111122 
COMPS,ioos:station:USF.COMPS:ANC:1,2010-10-01T17:48:00Z,28.1930,-82.7890,-0.442,1111122 
COMPS,ioos:station:USF.COMPS:ANC:1,2010-10-01T17:54:00Z,28.1930,-82.7890,-0.435,1111122 
COMPS,ioos:station:USF.COMPS:ANC:1,2010-10-01T18:00:00Z,28.1930,-82.7890,-0.429,1111122 
COMPS,ioos:station:USF.COMPS:ANC:1,2010-10-01T18:06:00Z,28.1930,-82.7890,-0.423,1111122 
COMPS,ioos:station:USF.COMPS:ANC:1,2010-10-01T18:12:00Z,28.1930,-82.7890,-0.417,1111122 
COMPS,ioos:station:USF.COMPS:ANC:1,2010-10-01T18:18:00Z,28.1930,-82.7890,-0.416,1111122 
COMPS,ioos:station:USF.COMPS:ANC:1,2010-10-01T18:24:00Z,28.1930,-82.7890,-0.405,1111122 
COMPS,ioos:station:USF.COMPS:ANC:1,2010-10-01T18:30:00Z,28.1930,-82.7890,-0.412,1111122 
COMPS,ioos:station:USF.COMPS:ANC:1,2010-10-01T18:36:00Z,28.1930,-82.7890,-0.406,1111122 
COMPS,ioos:station:USF.COMPS:ANC:1,2010-10-01T18:42:00Z,28.1930,-82.7890,-0.402,1111122 
COMPS,ioos:station:USF.COMPS:ANC:1,2010-10-01T18:48:00Z,28.1930,-82.7890,-0.395,1111122 
COMPS,ioos:station:USF.COMPS:ANC:1,2010-10-01T18:54:00Z,28.1930,-82.7890,-0.386,1111122 
COMPS,ioos:station:USF.COMPS:ANC:1,2010-10-01T19:00:00Z,28.1930,-82.7890,-0.377,1111122 
COMPS,ioos:station:USF.COMPS:ANC:1,2010-10-01T19:06:00Z,28.1930,-82.7890,-0.367,1111122 
COMPS,ioos:station:USF.COMPS:ANC:1,2010-10-01T19:12:00Z,28.1930,-82.7890,-0.357,1111122 
COMPS,ioos:station:USF.COMPS:ANC:1,2010-10-01T19:18:00Z,28.1930,-82.7890,-0.349,1111122 
COMPS,ioos:station:USF.COMPS:ANC:1,2010-10-01T19:24:00Z,28.1930,-82.7890,-0.34,1111122 
COMPS,ioos:station:USF.COMPS:ANC:1,2010-10-01T19:30:00Z,28.1930,-82.7890,-0.325,1111122 
COMPS,ioos:station:USF.COMPS:ANC:1,2010-10-01T19:36:00Z,28.1930,-82.7890,-0.311,1111122 
COMPS,ioos:station:USF.COMPS:ANC:1,2010-10-01T19:42:00Z,28.1930,-82.7890,-0.293,1111122 
COMPS,ioos:station:USF.COMPS:ANC:1,2010-10-01T19:48:00Z,28.1930,-82.7890,-0.279,1111122 
COMPS,ioos:station:USF.COMPS:ANC:1,2010-10-01T19:54:00Z,28.1930,-82.7890,-0.269,1111122 
COMPS,ioos:station:USF.COMPS:ANC:1,2010-10-01T20:00:00Z,28.1930,-82.7890,-0.256,1111122 
COMPS,ioos:station:USF.COMPS:ANC:1,2010-10-01T20:06:00Z,28.1930,-82.7890,-0.243,1111122 
COMPS,ioos:station:USF.COMPS:ANC:1,2010-10-01T20:12:00Z,28.1930,-82.7890,-0.225,1111122 
COMPS,ioos:station:USF.COMPS:ANC:1,2010-10-01T20:18:00Z,28.1930,-82.7890,-0.206,1111122 
COMPS,ioos:station:USF.COMPS:ANC:1,2010-10-01T20:24:00Z,28.1930,-82.7890,-0.189,1111122 
COMPS,ioos:station:USF.COMPS:ANC:1,2010-10-01T20:30:00Z,28.1930,-82.7890,-0.173,1111122 
COMPS,ioos:station:USF.COMPS:ANC:1,2010-10-01T20:36:00Z,28.1930,-82.7890,-0.152,1111122 
COMPS,ioos:station:USF.COMPS:ANC:1,2010-10-01T20:42:00Z,28.1930,-82.7890,-0.136,1111122 
COMPS,ioos:station:USF.COMPS:ANC:1,2010-10-01T20:48:00Z,28.1930,-82.7890,-0.128,1111122 
COMPS,ioos:station:USF.COMPS:ANC:1,2010-10-01T20:54:00Z,28.1930,-82.7890,-0.12,1111122 
COMPS,ioos:station:USF.COMPS:ANC:1,2010-10-01T21:00:00Z,28.1930,-82.7890,-0.105,1111122 
COMPS,ioos:station:USF.COMPS:ANC:1,2010-10-01T21:06:00Z,28.1930,-82.7890,-0.094,1111122 
COMPS,ioos:station:USF.COMPS:ANC:1,2010-10-01T21:12:00Z,28.1930,-82.7890,-0.083,1111122 
COMPS,ioos:station:USF.COMPS:ANC:1,2010-10-01T21:18:00Z,28.1930,-82.7890,-0.075,1111122 
COMPS,ioos:station:USF.COMPS:ANC:1,2010-10-01T21:24:00Z,28.1930,-82.7890,-0.069,1111122 
COMPS,ioos:station:USF.COMPS:ANC:1,2010-10-01T21:30:00Z,28.1930,-82.7890,-0.056,1111122 
COMPS,ioos:station:USF.COMPS:ANC:1,2010-10-01T21:36:00Z,28.1930,-82.7890,-0.044,1111122 
COMPS,ioos:station:USF.COMPS:ANC:1,2010-10-01T21:42:00Z,28.1930,-82.7890,-0.033,1111122 
COMPS,ioos:station:USF.COMPS:ANC:1,2010-10-01T21:48:00Z,28.1930,-82.7890,-0.026,1111122 
COMPS,ioos:station:USF.COMPS:ANC:1,2010-10-01T21:54:00Z,28.1930,-82.7890,-0.019,1111122 
COMPS,ioos:station:USF.COMPS:ANC:1,2010-10-01T22:00:00Z,28.1930,-82.7890,-0.006,1111122 
COMPS,ioos:station:USF.COMPS:ANC:1,2010-10-01T22:06:00Z,28.1930,-82.7890,0.005,1111122 
COMPS,ioos:station:USF.COMPS:ANC:1,2010-10-01T22:12:00Z,28.1930,-82.7890,0.018,1111122 
COMPS,ioos:station:USF.COMPS:ANC:1,2010-10-01T22:18:00Z,28.1930,-82.7890,0.032,1111122 
COMPS,ioos:station:USF.COMPS:ANC:1,2010-10-01T22:24:00Z,28.1930,-82.7890,0.039,1111122 
COMPS,ioos:station:USF.COMPS:ANC:1,2010-10-01T22:30:00Z,28.1930,-82.7890,0.044,1111122 
COMPS,ioos:station:USF.COMPS:ANC:1,2010-10-01T22:36:00Z,28.1930,-82.7890,0.053,1111122 
COMPS,ioos:station:USF.COMPS:ANC:1,2010-10-01T22:42:00Z,28.1930,-82.7890,0.066,1111122 
COMPS,ioos:station:USF.COMPS:ANC:1,2010-10-01T22:48:00Z,28.1930,-82.7890,0.076,1111122 
COMPS,ioos:station:USF.COMPS:ANC:1,2010-10-01T22:54:00Z,28.1930,-82.7890,0.081,1111122 
COMPS,ioos:station:USF.COMPS:ANC:1,2010-10-01T23:00:00Z,28.1930,-82.7890,0.085,1111122 
COMPS,ioos:station:USF.COMPS:ANC:1,2010-10-01T23:06:00Z,28.1930,-82.7890,0.099,1111122 
COMPS,ioos:station:USF.COMPS:ANC:1,2010-10-01T23:12:00Z,28.1930,-82.7890,0.106,1111122 
COMPS,ioos:station:USF.COMPS:ANC:1,2010-10-01T23:18:00Z,28.1930,-82.7890,0.117,1111122 
COMPS,ioos:station:USF.COMPS:ANC:1,2010-10-01T23:24:00Z,28.1930,-82.7890,0.123,1111122 
COMPS,ioos:station:USF.COMPS:ANC:1,2010-10-01T23:30:00Z,28.1930,-82.7890,0.123,1111122 
COMPS,ioos:station:USF.COMPS:ANC:1,2010-10-01T23:36:00Z,28.1930,-82.7890,0.122,1111122 
COMPS,ioos:station:USF.COMPS:ANC:1,2010-10-01T23:42:00Z,28.1930,-82.7890,0.126,1111122 
COMPS,ioos:station:USF.COMPS:ANC:1,2010-10-01T23:48:00Z,28.1930,-82.7890,0.127,1111122 
COMPS,ioos:station:USF.COMPS:ANC:1,2010-10-01T23:54:00Z,28.1930,-82.7890,0.132,1111122 
COMPS,ioos:station:USF.COMPS:ANC:1,2010-10-02T00:00:00Z,28.1930,-82.7890,0.125,1111122 
COMPS,ioos:station:USF.COMPS:ANC:1,2010-10-02T00:06:00Z,28.1930,-82.7890,0.122,1111122 
COMPS,ioos:station:USF.COMPS:ANC:1,2010-10-02T00:12:00Z,28.1930,-82.7890,0.12,1111122 
COMPS,ioos:station:USF.COMPS:ANC:1,2010-10-02T00:18:00Z,28.1930,-82.7890,0.115,1111122 
COMPS,ioos:station:USF.COMPS:ANC:1,2010-10-02T00:24:00Z,28.1930,-82.7890,0.112,1111122 
COMPS,ioos:station:USF.COMPS:ANC:1,2010-10-02T00:30:00Z,28.1930,-82.7890,0.107,1111122 
COMPS,ioos:station:USF.COMPS:ANC:1,2010-10-02T00:36:00Z,28.1930,-82.7890,0.103,1111122 
COMPS,ioos:station:USF.COMPS:ANC:1,2010-10-02T00:42:00Z,28.1930,-82.7890,0.1,1111122 
COMPS,ioos:station:USF.COMPS:ANC:1,2010-10-02T00:48:00Z,28.1930,-82.7890,0.089,1111122 
COMPS,ioos:station:USF.COMPS:ANC:1,2010-10-02T00:54:00Z,28.1930,-82.7890,0.085,1111122 
COMPS,ioos:station:USF.COMPS:ANC:1,2010-10-02T01:00:00Z,28.1930,-82.7890,0.082,1111122 
COMPS,ioos:station:USF.COMPS:ANC:1,2010-10-02T01:06:00Z,28.1930,-82.7890,0.077,1111122 
COMPS,ioos:station:USF.COMPS:ANC:1,2010-10-02T01:12:00Z,28.1930,-82.7890,0.071,1111122 
COMPS,ioos:station:USF.COMPS:ANC:1,2010-10-02T01:18:00Z,28.1930,-82.7890,0.066,1111122 
COMPS,ioos:station:USF.COMPS:ANC:1,2010-10-02T01:24:00Z,28.1930,-82.7890,0.065,1111122 
COMPS,ioos:station:USF.COMPS:ANC:1,2010-10-02T01:30:00Z,28.1930,-82.7890,0.064,1111122 
COMPS,ioos:station:USF.COMPS:ANC:1,2010-10-02T01:36:00Z,28.1930,-82.7890,0.062,1111122 
COMPS,ioos:station:USF.COMPS:ANC:1,2010-10-02T01:42:00Z,28.1930,-82.7890,0.058,1111122 
COMPS,ioos:station:USF.COMPS:ANC:1,2010-10-02T01:48:00Z,28.1930,-82.7890,0.053,1111122 
COMPS,ioos:station:USF.COMPS:ANC:1,2010-10-02T01:54:00Z,28.1930,-82.7890,0.052,1111122 
COMPS,ioos:station:USF.COMPS:ANC:1,2010-10-02T02:00:00Z,28.1930,-82.7890,0.051,1111122 
COMPS,ioos:station:USF.COMPS:ANC:1,2010-10-02T02:06:00Z,28.1930,-82.7890,0.05,1111122 
COMPS,ioos:station:USF.COMPS:ANC:1,2010-10-02T02:12:00Z,28.1930,-82.7890,0.044,1111122 
COMPS,ioos:station:USF.COMPS:ANC:1,2010-10-02T02:18:00Z,28.1930,-82.7890,0.032,1111122 
COMPS,ioos:station:USF.COMPS:ANC:1,2010-10-02T02:24:00Z,28.1930,-82.7890,0.028,1111122 
COMPS,ioos:station:USF.COMPS:ANC:1,2010-10-02T02:30:00Z,28.1930,-82.7890,0.033,1111122 
COMPS,ioos:station:USF.COMPS:ANC:1,2010-10-02T02:36:00Z,28.1930,-82.7890,0.034,1111122 
COMPS,ioos:station:USF.COMPS:ANC:1,2010-10-02T02:42:00Z,28.1930,-82.7890,0.033,1111122 
COMPS,ioos:station:USF.COMPS:ANC:1,2010-10-02T02:48:00Z,28.1930,-82.7890,0.03,1111122 
COMPS,ioos:station:USF.COMPS:ANC:1,2010-10-02T02:54:00Z,28.1930,-82.7890,0.02,1111122 
COMPS,ioos:station:USF.COMPS:ANC:1,2010-10-02T03:00:00Z,28.1930,-82.7890,0.02,1111122 